Location: Arena
(42.5007°N, 9.4650°E)
Time: 12:49:19
(UTC+00:00)

X-37B - Visible Passes

Search period start: 08 March 2021 00:00
Search period end: 18 March 2021 00:00
Orbit: 383 x 391 km, 45.0° (Epoch: 27 February)

Date Brightness Start Highest point End Pass type
(mag) Time Alt. Az. Time Alt. Az. Time Alt. Az.
10 Mar 2.4 18:39:24 10° SSW 18:41:13 18° SSE 18:41:13 18° SSE visible
11 Mar 2.2 19:16:34 10° SW 19:18:23 29° SW 19:18:23 29° SW visible
12 Mar 1.6 18:18:32 10° SW 18:21:26 32° SSE 18:23:05 19° E visible
12 Mar 3.7 19:54:45 10° W 19:55:23 15° W 19:55:23 15° W visible
13 Mar 0.5 18:56:21 10° WSW 18:59:34 85° SSE 18:59:58 65° E visible
14 Mar 0.9 17:58:04 10° SW 18:01:13 54° SSE 18:04:22 10° ENE visible
14 Mar 2.4 19:34:44 10° W 19:36:45 33° WNW 19:36:45 33° WNW visible
15 Mar 0.8 18:36:15 10° W 18:39:28 68° NNW 18:41:10 25° ENE visible
15 Mar 4.1 20:13:09 10° WNW 20:13:28 12° WNW 20:13:28 12° WNW visible
16 Mar 1.2 19:14:43 10° WNW 19:17:49 51° N 19:17:49 51° N visible
17 Mar 1.1 18:16:14 10° W 18:19:25 55° N 18:22:08 13° ENE visible
17 Mar 3.1 19:53:05 10° WNW 19:54:25 22° WNW 19:54:25 22° WNW visible
